Fairbanks, AK

3:23 AM AKST on November 17, 2019 (GMT -0900)
Fairbanks International

Weather History for PAFA - October, 2019

Change the Weather History Date:

Wednesday, October 23, 2019

  Actual Average Record
Temperature  
Mean Temperature 30 °F 18 °F  
Max Temperature 42 °F 26 °F 52 °F (1938)
Min Temperature 18 °F 11 °F -18 °F (1958)
Degree Days  
Heating Degree Days 35 47  
Month to date heating degree days 747 859  
Since 1 July heating degree days 1555 1853  
Cooling Degree Days 0 0  
Month to date cooling degree days 0 0  
Year to date cooling degree days 123 61  
Moisture  
Dew Point 21 °F    
Average Humidity 69    
Maximum Humidity 89    
Minimum Humidity 43    
Precipitation  
Precipitation 0.00 in 0.02 in 0.28 in (1984)
Month to date precipitation 1.48 0.64  
Year to date precipitation 13.99 9.31  
Snow  
Snow 0.00 in 0.40 in 4.60 in (1984)
Month to date snowfall 1.9 7.4  
Since 1 July snowfall 1.9 9.2  
Since 1 September snowfall 1.9 9.2  
Snow Depth 0.00 in    
Sea Level Pressure  
Sea Level Pressure 29.41 in    
Wind  
Wind Speed 4 mph ()    
Max Wind Speed 13 mph    
Max Gust Speed 18 mph    
Visibility 10.0 miles    
Events      
T = Trace of Precipitation, MM = Missing Value Source: Averaged Metar Reports

Daily Weather History Graph

Daily Weather History Graph

Search for Another Location

Airport or City:

Astronomy

Oct. 23, 2019 Rise Set
Actual Time 9:09 AM AKDT 6:00 PM AKDT
Civil Twilight 8:17 AM AKDT 6:52 PM AKDT
Nautical Twilight 7:20 AM AKDT 7:49 PM AKDT
Astronomical Twilight 6:23 AM AKDT 8:46 PM AKDT
Moon 12:54 AM AKDT (10/23) 6:16 PM AKDT (10/23)
Length of Visible Light 10h 35m
Length of Day
8h 51m
Waning Crescent, 25% of the Moon is Illuminated
Oct 23
Waning Crescent
Oct 27
New
Nov 4
First Quarter
Nov 12
Full
Nov 19
Last Quarter

Hourly Weather History & Observations

Time (AKDT) Temp. Windchill Dew Point Humidity Pressure Visibility Wind Dir Wind Speed Gust Speed Precip Events Conditions
12:53 AM 19.9 °F 14.9 °F 17.1 °F 89% 29.86 in 10.0 mi NNE 3.5 mph - N/A   Clear
1:53 AM 19.0 °F 13.9 °F 15.1 °F 85% 29.82 in 10.0 mi ENE 3.5 mph - N/A   Clear
2:53 AM 21.0 °F - 17.1 °F 85% 29.77 in 10.0 mi Calm Calm - N/A   Scattered Clouds
3:53 AM 23.0 °F 18.4 °F 18.0 °F 81% 29.72 in 10.0 mi ENE 3.5 mph - N/A   Scattered Clouds
4:53 AM 23.0 °F - 18.0 °F 81% 29.67 in 10.0 mi Calm Calm - N/A   Scattered Clouds
5:53 AM 25.0 °F 17.1 °F 19.9 °F 81% 29.62 in 10.0 mi NE 6.9 mph - N/A   Mostly Cloudy
6:53 AM 28.0 °F 20.0 °F 21.0 °F 75% 29.57 in 10.0 mi NNE 8.1 mph - N/A   Mostly Cloudy
7:53 AM 28.9 °F 19.2 °F 21.0 °F 72% 29.50 in 10.0 mi NE 11.5 mph - N/A   Mostly Cloudy
9:53 AM 33.1 °F 26.9 °F 21.9 °F 64% 29.42 in 10.0 mi NNE 6.9 mph - N/A   Mostly Cloudy
10:53 AM 36.0 °F 29.6 °F 21.0 °F 55% 29.36 in 10.0 mi NE 8.1 mph - N/A   Overcast
11:53 AM 37.9 °F 32.1 °F 21.9 °F 53% 29.32 in 10.0 mi NE 8.1 mph - N/A   Overcast
12:53 PM 42.1 °F 35.2 °F 21.0 °F 43% 29.28 in 10.0 mi East 12.7 mph - N/A   Overcast
1:53 PM 42.1 °F 36.1 °F 21.9 °F 45% 29.26 in 10.0 mi East 10.4 mph 18.4 mph N/A   Overcast
2:53 PM 41.0 °F 35.2 °F 24.1 °F 51% 29.24 in 10.0 mi East 9.2 mph - N/A   Overcast
3:53 PM 39.9 °F 35.1 °F 25.0 °F 55% 29.22 in 10.0 mi East 6.9 mph - N/A   Mostly Cloudy
4:53 PM 39.9 °F 36.7 °F 25.0 °F 55% 29.20 in 10.0 mi ENE 4.6 mph - N/A   Mostly Cloudy
5:53 PM 37.9 °F 34.4 °F 24.1 °F 57% 29.18 in 10.0 mi ENE 4.6 mph - N/A   Mostly Cloudy
6:53 PM 34.0 °F 31.0 °F 24.1 °F 67% 29.20 in 10.0 mi East 3.5 mph - N/A   Mostly Cloudy
8:53 PM 28.9 °F 25.2 °F 23.0 °F 78% 29.21 in 10.0 mi NNE 3.5 mph - N/A   Partly Cloudy
9:53 PM 28.0 °F 24.2 °F 21.9 °F 78% 29.22 in 10.0 mi ENE 3.5 mph - N/A   Partly Cloudy
10:53 PM 27.0 °F 23.0 °F 23.0 °F 85% 29.24 in 10.0 mi NW 3.5 mph - N/A   Mostly Cloudy
11:53 PM 28.9 °F - 24.1 °F 82% 29.25 in 10.0 mi Calm Calm - N/A   Mostly Cloudy